Location: Newark
(41.9000°N, 12.4833°E)
Time: 13:24:01
(UTC+00:00)

N. Korean satellite - Visible Passes

Search period start: 21 October 2019 00:00
Search period end: 31 October 2019 00:00
Orbit: 455 x 508 km, 97.2° (Epoch: 20 October)

Date Brightness Start Highest point End Pass type
(mag) Time Alt. Az. Time Alt. Az. Time Alt. Az.
21 Oct 9.4 04:24:48 10° NE 04:27:46 24° E 04:30:47 10° SSE visible
22 Oct 10.3 04:00:50 10° ENE 04:02:18 12° E 04:03:46 10° ESE visible
23 Oct 10.0 17:17:43 10° SW 17:19:40 14° W 17:21:37 10° WNW visible
24 Oct 8.3 04:41:51 10° NNE 04:45:19 39° E 04:48:48 10° SSE visible
24 Oct 8.9 16:51:09 10° SSW 16:54:11 29° W 16:57:16 10° NW visible
25 Oct 9.7 04:17:10 10° NE 04:19:54 20° E 04:22:38 10° SE visible
27 Oct 7.1 04:59:08 10° NNE 05:02:48 69° ESE 05:06:29 10° S visible
27 Oct 9.8 17:09:17 10° SW 17:11:42 18° W 17:14:10 10° NW visible
28 Oct 8.7 04:34:06 10° NNE 04:37:26 32° E 04:40:46 10° SSE visible
28 Oct 8.3 16:43:01 10° SSW 16:46:15 37° W 16:49:32 10° NNW visible
29 Oct 10.0 04:09:36 10° NE 04:11:58 16° E 04:14:21 10° SE visible
30 Oct 10.3 17:28:15 10° WSW 17:29:15 11° W 17:30:15 10° WNW visible
